TimeCST,TemperatureF,Dew PointF,Humidity,Sea Level PressureIn,VisibilityMPH,Wind Direction,Wind SpeedMPH,Gust SpeedMPH,PrecipitationIn,Events,Conditions,WindDirDegrees,DateUTC
12:53 AM,23.0,3.9,44,30.07,10.0,WSW,4.6,-,N/A,,Clear,250,2012-12-11 06:53:00
1:53 AM,21.9,5.0,48,30.07,10.0,WSW,4.6,-,N/A,,Clear,250,2012-12-11 07:53:00
2:53 AM,25.0,7.0,46,30.06,10.0,SW,4.6,-,N/A,,Partly Cloudy,220,2012-12-11 08:53:00
3:53 AM,24.1,7.0,48,30.06,10.0,Calm,Calm,-,N/A,,Partly Cloudy,0,2012-12-11 09:53:00
4:53 AM,21.0,7.0,55,30.06,10.0,Calm,Calm,-,N/A,,Clear,0,2012-12-11 10:53:00
5:53 AM,18.0,6.1,60,30.10,10.0,NW,6.9,-,N/A,,Clear,320,2012-12-11 11:53:00
6:53 AM,17.1,7.0,65,30.12,10.0,Calm,Calm,-,N/A,,Mostly Cloudy,0,2012-12-11 12:53:00
7:53 AM,19.0,8.1,62,30.13,10.0,SW,6.9,-,N/A,,Mostly Cloudy,220,2012-12-11 13:53:00
8:53 AM,24.1,10.9,57,30.15,10.0,West,8.1,-,N/A,,Overcast,280,2012-12-11 14:53:00
9:53 AM,30.9,10.9,43,30.15,10.0,NNW,5.8,-,N/A,,Clear,340,2012-12-11 15:53:00
10:53 AM,39.0,10.0,30,30.15,10.0,Variable,4.6,-,N/A,,Clear,0,2012-12-11 16:53:00
11:53 AM,43.0,10.0,26,30.14,10.0,Calm,Calm,-,N/A,,Clear,0,2012-12-11 17:53:00
12:53 PM,46.0,8.1,21,30.11,10.0,Calm,Calm,-,N/A,,Clear,0,2012-12-11 18:53:00
1:53 PM,48.0,7.0,19,30.09,10.0,Calm,Calm,-,N/A,,Clear,0,2012-12-11 19:53:00
2:53 PM,48.0,6.1,18,30.07,10.0,South,4.6,-,N/A,,Clear,170,2012-12-11 20:53:00
3:53 PM,48.0,7.0,19,30.07,10.0,South,5.8,-,N/A,,Clear,180,2012-12-11 21:53:00
4:53 PM,45.0,9.0,23,30.08,10.0,South,6.9,-,N/A,,Clear,190,2012-12-11 22:53:00
5:53 PM,33.1,8.1,35,30.12,10.0,South,8.1,-,N/A,,Clear,180,2012-12-11 23:53:00
6:53 PM,32.0,7.0,35,30.14,10.0,South,10.4,-,N/A,,Clear,180,2012-12-12 00:53:00
7:53 PM,33.1,8.1,35,30.14,10.0,South,12.7,-,N/A,,Clear,180,2012-12-12 01:53:00
8:53 PM,32.0,9.0,38,30.14,10.0,South,12.7,-,N/A,,Clear,190,2012-12-12 02:53:00
9:53 PM,32.0,10.0,40,30.13,10.0,South,13.8,-,N/A,,Clear,180,2012-12-12 03:53:00
10:53 PM,32.0,10.9,42,30.12,10.0,South,17.3,-,N/A,,Clear,190,2012-12-12 04:53:00
11:53 PM,30.0,10.9,45,30.12,10.0,South,13.8,-,N/A,,Clear,180,2012-12-12 05:53:00